Regional Weather Roundup
Issued by NWS Wilmington, NC

Home | Current Version | Previous Version | Text Only | Print | Product List | Glossary On
Versions: 1 2 3 4 5 6 7 8 9 10 11 12 13 14 15 16 17 18 19 20 21 22 23 24 25 26 27 28 29 30 31 32 33 34 35 36 37 38 39 40 41 42 43 44 45 46 47 48 49 50
000
ASUS42 KILM 221810
RWRILM
RWRILM
REGIONAL HOURLY WEATHER ROUNDUP
NATIONAL WEATHER SERVICE WILMINGTON NC
200 PM EDT MON SEP 22 2014

NOTE: "FAIR" INDICATES FEW OR NO CLOUDS BELOW 12,000 FEET WITH NO
SIGNIFICANT WEATHER AND/OR OBSTRUCTIONS TO VISIBILITY.

...............WFO WILMINGTON COUNTY WARNING AREA...............

......COASTAL NC AND SC COUNTIES......

CITY           SKY/WX    TMP DP  RH WIND       PRES   REMARKS
WILMINGTON     PTSUNNY   77  61  57 N6        30.01S
SOUTHPORT      MOSUNNY   80  58  47 E6        30.00F
N MYRTLE BEACH PTSUNNY   77  64  64 NE8       30.01S
MYRTLE BEACH   PTSUNNY   77  64  65 N10       30.01S

......INLAND NC AND SC COUNTIES.......

CITY           SKY/WX    TMP DP  RH WIND       PRES   REMARKS
LUMBERTON      MOSUNNY   80  53  39 N7        30.02S
ELIZABETHTOWN  MOSUNNY   77  56  48 CALM      30.03S
WHITEVILLE     MOSUNNY   77  59  53 N5        30.02S
FLORENCE       PTSUNNY   79  58  48 NE9       30.02F
DARLINGTON     PTSUNNY   81  59  47 NE7       30.04S

....................REST OF NORTH CAROLINA......................

.........EASTERN NC.........

CITY           SKY/WX    TMP DP  RH WIND       PRES   REMARKS
CAPE HATTERAS  MOSUNNY   77  64  64 N9        30.00R
JACKSONVILLE   CLOUDY    75  54  46 NW8       30.01F
MOREHEAD CITY  PTSUNNY   80  62  54 N7        29.99F
KENANSVILLE    MOSUNNY   76  56  48 N7        30.02F
NEW BERN       PTSUNNY   78  59  51 N8        30.02F
ELIZABETH CITY SUNNY     78  53  41 NE3       30.00F

.........CENTRAL NC.........

CITY           SKY/WX    TMP DP  RH WIND       PRES   REMARKS
RALEIGH DURHAM PTSUNNY   74  50  42 VRB3      30.04F
ROCKY MOUNT    SUNNY     78  53  41 N9        30.02F
ROANOKE RAPIDS NOT AVBL
FAYETTEVILLE   MOSUNNY   79  54  41 VRB6      30.02S
HOFFMAN        PTSUNNY   77  46  33 N7        30.06F

.........WESTERN NC.........

CITY           SKY/WX    TMP DP  RH WIND       PRES   REMARKS
CHARLOTTE      PTSUNNY   74  50  42 N6        30.08S
GREENSBORO     PTSUNNY   73  51  46 N6        30.07F
HICKORY        NOT AVBL
BOONE          NOT AVBL
ASHEVILLE      NOT AVBL

.....................REST OF SOUTH CAROLINA.....................

.........EASTERN SC.........

CITY           SKY/WX    TMP DP  RH WIND       PRES   REMARKS
CHARLESTON     MOSUNNY   87  67  51 S5        29.99F HX  90
BEAUFORT MCAS  SUNNY     87  67  51 CALM      29.99F HX  90
HILTON HEAD    NOT AVBL

.........CENTRAL SC.........

CITY           SKY/WX    TMP DP  RH WIND       PRES   REMARKS
COLUMBIA       LGT RAIN  76  57  51 NE5       30.04F
ORANGEBURG     CLOUDY    73  61  65 NW5       30.04R
SUMTER SHAW    DRIZZLE   77  55  47 N8        30.03R

.........WESTERN SC.........

CITY           SKY/WX    TMP DP  RH WIND       PRES   REMARKS
GREENVILLE     NOT AVBL
ROCK HILL      PTSUNNY   72  51  47 NE5       30.09R
ANDERSON       PTSUNNY   76  55  48 E5        30.06F
CLEMSON        NOT AVBL
GREENWOOD      CLOUDY    73  56  54 E7        30.08F


...................COASTAL AND OFFSHORE REPORTS..................

................LOCAL PIERS AND NC RESERVE................


STATION/POSITION TIME  SKY/WX   TEMP    WIND        PRES    VSBY
                                AIR SEA DIR/SP/G
                 (UTC)          (F)     (DEG/KT/KT) (MB)    (MI)
JOHNY MRCER PIER 1800            76 80   20/ 11/ 13 1015.6S
NC RESRV MASNBRO 1700            77      30/  7     1016.0S
OCEAN CREST PIER 1800            79 79  360/  4/  8 1015.1F
SPRINGMAID  PIER 1800            75 78   30/  6/  8 1016.1S


................COASTAL AND OFFSHORE BUOYS................


STATION/POSITION TIME  SKY/WX   TEMP    WIND        PRES    VSBY
                                AIR SEA DIR/SP/G
                 (UTC)          (F)     (DEG/KT/KT) (MB)    (MI)
DIMNDSHOAL 41025 1800            76     360/ 14/ 17 1015.6R
WVE H/P(F/S)=  4/ 8 WND WVE H/P(F/S)=  2/ 3 SWL H/P/D(F/S/D)=  3/130/ 8

CAPE LOOKOUT     1800            79      20/  9/ 11 1015.6F
ONSLOW BAY 41036 1800            78 82   20/ 10/ 12 1015.5F
WVE H/P(F/S)=  4/ 8 WND WVE H/P(F/S)=  2/ 3 SWL H/P/D(F/S/D)=  3/150/ 8

5 WRITEBCH 41038 1700            74 79   50/ 12/ 14   N/A
MASONBORO  41110 1800               79                N/A
WVE H/P(F/S)=  2/ 8 WND WVE H/P(F/S)=  2/ 8

WILM HARBR 41108 1800               80                N/A
WVE H/P(F/S)=  3/ 6 WND WVE H/P(F/S)=  3/ 6

27WRITEBCH 41037 1700            74 80  360/ 12/ 14 1016.5R
FRYING PAN 41013 NOT AVBL
SUNST NRSH 41024 1700            77      20/ 12/ 14 1016.0R
CAPRS NRSH 41029 1700            82     150/  4/  4   N/A
EDISTO     41004 1800            80 82  240/ 10/ 12 1015.5F
WVE H/P(F/S)=  3/ 5 WND WVE H/P(F/S)=  2/ 4 SWL H/P/D(F/S/D)=  3/ 5



..........OFFSHORE BUOYS BEYOND 100 NM OFFSHORE...........
.....IN A TRIANGLE---HAT TO BERMUDA TO BAHAMAS TO HAT.....


STATION/POSITION TIME  SKY/WX   TEMP    WIND        PRES    VSBY
                                AIR SEA DIR/SP/G
                 (UTC)          (F)     (DEG/KT/KT) (MB)    (MI)
150E HAT   41001 NOT AVBL
W BERMUDA  41048 1722            81 81  210/  8/  8 1017.8F
WVE H/P(F/S)=  6/ 8 WND WVE H/P(F/S)=  2/ 4 SWL H/P/D(F/S/D)=  5/250/ 8

ATLANTIC S 41049 1659            84 85  100/ 12/ 16 1019.2
WVE H/P(F/S)=  5/ 8 WND WVE H/P(F/S)=  3/ 4 SWL H/P/D(F/S/D)=  5/130/ 8

E BAHAMAS  41046 1715            84 85   70/ 10/ 12 1016.6F
WVE H/P(F/S)=  4/ 7 WND WVE H/P(F/S)=  2/ 5 SWL H/P/D(F/S/D)=  3/110/ 7

NE BAHAMAS 41047 1700            83 85  160/  4/  6 1018.5
WVE H/P(F/S)=  4/ 7 WND WVE H/P(F/S)=  2/ 4 SWL H/P/D(F/S/D)=  3/ 80/ 7

120E CANVRL41010 1800            79 84   20/  2/  6 1017.3F
WVE H/P(F/S)=  4/ 8 WND WVE H/P(F/S)=  2/ 3 SWL H/P/D(F/S/D)=  3/ 40/ 8


END


USA.gov is the U.S. government's official web portal to all federal, state and local government web resources and services.